UAL25TF KEWR-LPPT

Flight info

Callsign UAL25TF
Flight time N/A
Altitude 39000
Route MERIT DCT HFD DCT PUT DCT TUSKY DCT SUPRY/M084F390 DCT 46N050W 46N040W 43N030W/M084F410 41N020W DCT ERPES/N0485F410 DCT LAZET
Aircraft B772/H-SDE2E3FGHIJ5LORVWXY/LB1D1

Departure

Time N/A
Airport Newark Liberty International Airport (KEWR)

Arrival

Time 2026-05-07 19:02
Airport Lisbon Humberto Delgado Airport (LPPT)
Time Latitude Longitude Altitude Speed Heading
2026-05-07 17:22 45.65897 -51.38566 39279 ft 496 kts 71°
2026-05-07 17:22 45.84052 -50.65697 39246 ft 493 kts 70°
2026-05-07 17:23 46.00908 -49.92197 39238 ft 492 kts 84°
2026-05-07 17:23 46.01859 -49.53096 39358 ft 490 kts 87°
2026-05-07 17:23 46.03447 -49.13942 39349 ft 491 kts 86°
2026-05-07 17:24 46.05956 -48.37057 39315 ft 489 kts 87°
2026-05-07 17:24 46.07949 -47.60798 39350 ft 487 kts 88°
2026-05-07 17:25 46.09431 -46.84454 39367 ft 486 kts 88°
2026-05-07 17:25 46.10407 -46.06351 39384 ft 487 kts 88°
2026-05-07 17:26 46.10864 -45.29818 39389 ft 485 kts 88°
2026-05-07 17:26 46.10822 -44.53775 39362 ft 483 kts 88°
2026-05-07 17:27 46.10274 -43.77705 39372 ft 485 kts 89°
2026-05-07 17:27 46.06890 -41.97686 39615 ft 484 kts 91°
2026-05-07 17:28 46.05670 -41.54098 39353 ft 488 kts 90°
2026-05-07 17:28 46.04465 -41.15681 39285 ft 473 kts 90°
2026-05-07 17:29 46.03166 -40.78683 39379 ft 477 kts 90°
2026-05-07 17:29 46.01677 -40.40008 39299 ft 488 kts 91°
2026-05-07 17:30 45.99924 -40.01625 39278 ft 474 kts 97°
2026-05-07 17:30 45.96286 -39.84431 39290 ft 478 kts 108°
2026-05-07 17:30 45.91777 -39.66406 39345 ft 485 kts 107°
2026-05-07 17:31 45.82562 -39.29279 39274 ft 495 kts 107°
2026-05-07 17:31 45.73478 -38.93270 39276 ft 485 kts 107°
2026-05-07 17:32 45.64207 -38.57079 39312 ft 488 kts 108°
2026-05-07 17:32 45.56218 -38.26343 39275 ft 501 kts 108°
2026-05-07 17:33 45.45022 -37.83947 39267 ft 492 kts 108°
2026-05-07 17:33 45.35308 -37.47761 39282 ft 488 kts 108°
2026-05-07 17:34 45.25503 -37.11782 39285 ft 489 kts 108°
2026-05-07 17:34 45.15777 -36.76611 39277 ft 490 kts 108°
2026-05-07 17:35 45.05691 -36.40674 39294 ft 492 kts 108°
2026-05-07 17:35 44.95534 -36.05008 39252 ft 494 kts 108°
2026-05-07 17:36 44.85361 -35.69792 39273 ft 495 kts 108°
2026-05-07 17:36 44.74834 -35.33866 39237 ft 497 kts 108°
2026-05-07 17:37 44.64378 -34.98682 39237 ft 499 kts 109°
2026-05-07 17:37 44.48066 -34.44729 39243 ft 503 kts 109°
2026-05-07 17:38 44.26107 -33.73877 39218 ft 507 kts 109°
2026-05-07 17:38 44.03188 -33.01942 39193 ft 509 kts 110°
2026-05-07 17:39 43.84185 -32.43748 39163 ft 509 kts 110°
2026-05-07 17:39 43.60810 -31.73849 39146 ft 507 kts 110°
2026-05-07 17:40 43.36765 -31.03766 39095 ft 505 kts 111°
2026-05-07 17:40 43.12698 -30.35404 39041 ft 505 kts 111°
2026-05-07 17:41 42.94742 -29.65993 39133 ft 493 kts 95°
2026-05-07 17:41 42.89010 -29.28754 39132 ft 509 kts 98°
2026-05-07 17:41 42.83148 -28.92209 38999 ft 506 kts 98°
2026-05-07 17:42 42.71024 -28.18657 38869 ft 492 kts 98°
2026-05-07 17:42 42.58924 -27.48203 38903 ft 492 kts 99°
2026-05-07 17:43 42.46113 -26.76378 38986 ft 500 kts 100°
2026-05-07 17:43 42.32461 -26.03007 38817 ft 503 kts 101°
2026-05-07 17:44 42.18723 -25.31743 38808 ft 500 kts 102°
2026-05-07 17:44 42.04378 -24.59990 38755 ft 499 kts 103°
2026-05-07 17:45 41.89720 -23.89200 38789 ft 499 kts 104°
2026-05-07 17:45 41.74396 -23.17697 38760 ft 500 kts 105°
2026-05-07 17:46 41.58755 -22.47054 38770 ft 500 kts 106°
2026-05-07 17:46 41.42684 -21.76755 38751 ft 501 kts 107°
2026-05-07 17:47 41.26108 -21.06476 38751 ft 500 kts 108°
2026-05-07 17:47 41.09213 -20.37010 38770 ft 502 kts 109°
2026-05-07 17:48 40.94144 -19.67256 38775 ft 502 kts 103°
2026-05-07 17:48 40.81265 -18.96283 38773 ft 501 kts 105°
2026-05-07 17:49 40.68565 -18.29032 38802 ft 500 kts 106°
2026-05-07 17:49 40.55001 -17.59660 38814 ft 498 kts 107°
2026-05-07 17:50 40.40982 -16.90391 38846 ft 495 kts 108°
2026-05-07 17:50 40.26446 -16.20913 38853 ft 493 kts 109°
2026-05-07 17:51 40.15312 -15.69200 38874 ft 494 kts 109°
2026-05-07 17:51 40.13423 -15.60559 38872 ft 494 kts 109°
2026-05-07 17:52 40.11532 -15.51933 38885 ft 494 kts 109°
2026-05-07 17:52 40.09638 -15.43319 38891 ft 493 kts 109°
2026-05-07 17:53 40.07738 -15.34712 38894 ft 493 kts 110°
2026-05-07 17:53 40.05830 -15.26109 38894 ft 493 kts 110°
2026-05-07 17:54 40.03917 -15.17509 38905 ft 493 kts 110°
2026-05-07 17:54 40.01998 -15.08914 38898 ft 493 kts 110°
2026-05-07 17:55 40.00072 -15.00322 38894 ft 493 kts 110°
2026-05-07 17:55 39.98176 -14.91941 38890 ft 493 kts 110°
2026-05-07 17:56 39.96223 -14.83379 38899 ft 492 kts 110°
2026-05-07 17:56 39.94265 -14.74824 38892 ft 492 kts 111°
2026-05-07 17:57 39.92636 -14.67719 38901 ft 492 kts 111°
2026-05-07 17:57 39.90351 -14.57790 38908 ft 492 kts 111°
2026-05-07 17:58 39.88367 -14.49204 38901 ft 492 kts 111°
2026-05-07 17:58 39.86405 -14.40746 38907 ft 492 kts 111°
2026-05-07 17:59 39.84418 -14.32208 38909 ft 492 kts 111°
2026-05-07 17:59 39.82413 -14.23695 38910 ft 492 kts 111°
2026-05-07 18:00 39.80410 -14.15195 38910 ft 491 kts 112°
2026-05-07 18:00 39.78412 -14.06705 38918 ft 490 kts 112°
2026-05-07 18:01 39.76450 -13.98392 38914 ft 490 kts 112°
2026-05-07 18:01 39.74446 -13.89936 38915 ft 489 kts 112°
2026-05-07 18:02 39.71433 -13.77284 38913 ft 488 kts 112°
2026-05-07 18:03 39.69423 -13.68882 38912 ft 487 kts 112°
2026-05-07 18:03 39.67411 -13.60501 38919 ft 486 kts 113°
2026-05-07 18:04 39.65391 -13.52123 38916 ft 486 kts 112°
2026-05-07 18:04 39.63370 -13.43763 38911 ft 485 kts 113°
2026-05-07 18:05 39.61346 -13.35421 38914 ft 485 kts 113°
2026-05-07 18:05 39.59328 -13.27138 38919 ft 485 kts 113°
2026-05-07 18:06 39.57291 -13.18804 38924 ft 485 kts 113°
2026-05-07 18:06 39.55249 -13.10478 38911 ft 485 kts 114°
2026-05-07 18:07 39.53202 -13.02159 38917 ft 485 kts 114°
2026-05-07 18:07 39.51188 -12.94005 38916 ft 485 kts 114°
2026-05-07 18:08 39.49126 -12.85686 38929 ft 485 kts 114°
2026-05-07 18:08 39.47059 -12.77374 38931 ft 486 kts 114°
2026-05-07 18:09 39.44986 -12.69064 38919 ft 485 kts 114°
2026-05-07 18:09 39.42913 -12.60780 38924 ft 484 kts 114°
2026-05-07 18:10 39.40832 -12.52499 38925 ft 483 kts 114°
2026-05-07 18:10 39.38751 -12.44244 38926 ft 483 kts 114°
2026-05-07 18:11 39.36668 -12.36009 38899 ft 482 kts 115°
2026-05-07 18:11 39.34580 -12.27785 38927 ft 482 kts 115°
2026-05-07 18:12 39.32485 -12.19560 38930 ft 482 kts 115°
2026-05-07 18:12 39.30383 -12.11335 38932 ft 482 kts 115°
2026-05-07 18:13 39.28275 -12.03110 38911 ft 483 kts 115°
2026-05-07 18:13 39.26194 -11.95022 38927 ft 484 kts 115°
2026-05-07 18:14 39.24060 -11.86756 38935 ft 486 kts 115°
2026-05-07 18:14 39.21915 -11.78475 38936 ft 487 kts 116°
2026-05-07 18:15 39.19761 -11.70181 38925 ft 488 kts 116°
2026-05-07 18:15 39.17607 -11.61906 38808 ft 484 kts 116°
2026-05-07 18:15 39.16536 -11.57801 38532 ft 483 kts 116°
2026-05-07 18:16 39.15461 -11.53699 38110 ft 484 kts 116°
2026-05-07 18:16 39.14380 -11.49584 37640 ft 486 kts 116°
2026-05-07 18:16 39.13296 -11.45462 37179 ft 488 kts 116°
2026-05-07 18:16 39.12205 -11.41318 36703 ft 489 kts 116°
2026-05-07 18:17 39.11112 -11.37171 36259 ft 490 kts 116°
2026-05-07 18:17 39.10014 -11.33008 35829 ft 490 kts 115°
2026-05-07 18:17 39.08916 -11.28853 35308 ft 493 kts 115°
2026-05-07 18:17 39.07820 -11.24715 34762 ft 496 kts 115°
2026-05-07 18:18 39.06688 -11.20449 34278 ft 497 kts 115°
2026-05-07 18:18 39.05585 -11.16292 33812 ft 498 kts 115°
2026-05-07 18:18 39.04465 -11.12077 32896 ft 500 kts 115°
2026-05-07 18:18 39.03336 -11.07843 31861 ft 502 kts 115°
2026-05-07 18:19 39.02200 -11.03585 30787 ft 504 kts 115°
2026-05-07 18:19 39.01105 -10.99485 30040 ft 500 kts 114°
2026-05-07 18:19 38.99981 -10.95273 29108 ft 497 kts 114°
2026-05-07 18:19 38.98860 -10.91089 28220 ft 494 kts 114°
2026-05-07 18:20 38.97744 -10.86928 27408 ft 490 kts 114°
2026-05-07 18:20 38.96634 -10.82799 26581 ft 488 kts 114°
2026-05-07 18:20 38.95527 -10.78692 25766 ft 485 kts 114°
2026-05-07 18:20 38.94437 -10.74639 25306 ft 474 kts 114°
2026-05-07 18:21 38.93377 -10.70709 25092 ft 457 kts 114°
2026-05-07 18:21 38.92411 -10.66887 24938 ft 444 kts 109°
2026-05-07 18:21 38.92024 -10.63001 24943 ft 434 kts 98°
2026-05-07 18:21 38.91921 -10.59145 24933 ft 431 kts 96°
2026-05-07 18:22 38.91858 -10.55303 24922 ft 431 kts 96°
2026-05-07 18:22 38.91837 -10.53997 24941 ft 432 kts 96°
2026-05-07 18:22 38.91696 -10.47579 24942 ft 434 kts 97°
2026-05-07 18:22 38.91583 -10.43704 24951 ft 435 kts 97°
2026-05-07 18:23 38.91456 -10.39819 24943 ft 436 kts 97°
2026-05-07 18:23 38.91320 -10.35924 24940 ft 435 kts 97°
2026-05-07 18:23 38.91187 -10.32121 24922 ft 420 kts 97°
2026-05-07 18:23 38.91058 -10.28439 24923 ft 405 kts 98°
2026-05-07 18:24 38.91031 -10.24889 24924 ft 396 kts 90°
2026-05-07 18:24 38.91556 -10.21410 24933 ft 400 kts 76°
2026-05-07 18:24 38.92681 -10.18147 24751 ft 402 kts 61°
2026-05-07 18:24 38.94308 -10.15239 24427 ft 402 kts 52°
2026-05-07 18:25 38.96133 -10.12514 24008 ft 402 kts 50°
2026-05-07 18:25 38.97374 -10.10739 23744 ft 402 kts 49°
2026-05-07 18:25 38.99253 -10.08088 23355 ft 401 kts 49°
2026-05-07 18:25 39.01130 -10.05450 22991 ft 398 kts 49°
2026-05-07 18:26 39.02993 -10.02836 22665 ft 394 kts 49°
2026-05-07 18:26 39.04836 -10.00252 22319 ft 390 kts 49°
2026-05-07 18:26 39.06562 -9.97836 21989 ft 388 kts 49°
2026-05-07 18:26 39.08384 -9.95287 21631 ft 385 kts 49°
2026-05-07 18:27 39.10191 -9.92763 21284 ft 383 kts 49°
2026-05-07 18:27 39.11992 -9.90250 20934 ft 380 kts 49°
2026-05-07 18:27 39.13780 -9.87759 20592 ft 377 kts 49°
2026-05-07 18:27 39.15554 -9.85292 20257 ft 374 kts 49°
2026-05-07 18:28 39.17317 -9.82848 19915 ft 371 kts 49°
2026-05-07 18:28 39.19064 -9.80448 19764 ft 363 kts 49°
2026-05-07 18:28 39.20782 -9.78094 19492 ft 359 kts 49°
2026-05-07 18:28 39.22493 -9.75755 19151 ft 358 kts 49°
2026-05-07 18:29 39.24202 -9.73428 18828 ft 356 kts 49°
2026-05-07 18:29 39.25899 -9.71122 18523 ft 353 kts 49°
2026-05-07 18:29 39.27587 -9.68835 18244 ft 350 kts 49°
2026-05-07 18:29 39.29263 -9.66571 17898 ft 347 kts 49°
2026-05-07 18:30 39.30929 -9.64325 17557 ft 345 kts 49°
2026-05-07 18:30 39.32585 -9.62093 17197 ft 343 kts 49°
2026-05-07 18:30 39.34218 -9.59866 16839 ft 336 kts 53°
2026-05-07 18:30 39.35373 -9.57284 16352 ft 330 kts 77°
2026-05-07 18:31 39.35631 -9.54406 15988 ft 319 kts 99°
2026-05-07 18:31 39.35276 -9.51615 15672 ft 312 kts 107°
2026-05-07 18:31 39.34775 -9.48892 15330 ft 310 kts 108°
2026-05-07 18:31 39.34254 -9.46238 14985 ft 308 kts 108°
2026-05-07 18:32 39.33710 -9.43532 14608 ft 307 kts 109°
2026-05-07 18:32 39.33165 -9.40871 14258 ft 305 kts 109°
2026-05-07 18:32 39.32625 -9.38264 13944 ft 303 kts 109°
2026-05-07 18:32 39.32079 -9.35644 13600 ft 301 kts 109°
2026-05-07 18:33 39.31534 -9.33038 13223 ft 300 kts 109°
2026-05-07 18:33 39.30991 -9.30447 12868 ft 298 kts 109°
2026-05-07 18:33 39.30448 -9.27873 12487 ft 297 kts 109°
2026-05-07 18:33 39.29905 -9.25302 12115 ft 296 kts 109°
2026-05-07 18:34 39.29364 -9.22745 11786 ft 294 kts 109°
2026-05-07 18:34 39.28825 -9.20208 11446 ft 292 kts 109°
2026-05-07 18:34 39.28287 -9.17681 11085 ft 292 kts 109°
2026-05-07 18:34 39.27750 -9.15160 10930 ft 289 kts 109°
2026-05-07 18:35 39.27220 -9.12675 10931 ft 288 kts 109°
2026-05-07 18:35 39.26685 -9.10168 10936 ft 292 kts 109°
2026-05-07 18:35 39.26143 -9.07636 10913 ft 293 kts 109°
2026-05-07 18:35 39.25410 -9.05247 10915 ft 284 kts 129°
2026-05-07 18:36 39.23894 -9.03695 10933 ft 281 kts 162°
2026-05-07 18:36 39.21979 -9.03410 10932 ft 281 kts 187°
2026-05-07 18:36 39.20074 -9.03971 10932 ft 282 kts 199°
2026-05-07 18:36 39.18329 -9.05072 10926 ft 278 kts 210°
2026-05-07 18:37 39.16710 -9.06432 10934 ft 278 kts 213°
2026-05-07 18:37 39.15117 -9.07850 10921 ft 279 kts 213°
2026-05-07 18:37 39.13521 -9.09276 10939 ft 279 kts 213°
2026-05-07 18:37 39.11920 -9.10695 10927 ft 279 kts 213°
2026-05-07 18:38 39.10314 -9.12105 10927 ft 279 kts 213°
2026-05-07 18:38 39.08710 -9.13505 10929 ft 279 kts 213°
2026-05-07 18:38 39.07100 -9.14899 10937 ft 278 kts 213°
2026-05-07 18:38 39.05493 -9.16285 10925 ft 278 kts 212°
2026-05-07 18:39 39.03907 -9.17649 10926 ft 278 kts 212°
2026-05-07 18:39 39.02282 -9.19043 10929 ft 277 kts 212°
2026-05-07 18:39 39.00696 -9.20400 10939 ft 277 kts 212°
2026-05-07 18:39 38.99066 -9.21793 10926 ft 278 kts 212°
2026-05-07 18:40 38.97459 -9.23165 10929 ft 277 kts 212°
2026-05-07 18:40 38.95855 -9.24534 10943 ft 277 kts 212°
2026-05-07 18:40 38.94191 -9.25661 10931 ft 274 kts 202°
2026-05-07 18:40 38.92408 -9.26537 10934 ft 272 kts 199°
2026-05-07 18:41 38.90646 -9.27344 10925 ft 258 kts 199°
2026-05-07 18:41 38.89018 -9.28086 10903 ft 245 kts 199°
2026-05-07 18:41 38.87481 -9.29013 10939 ft 251 kts 217°
2026-05-07 18:41 38.86416 -9.30786 10934 ft 254 kts 246°
2026-05-07 18:42 38.86111 -9.33005 10835 ft 255 kts 265°
2026-05-07 18:42 38.86122 -9.35283 10543 ft 255 kts 268°
2026-05-07 18:42 38.86184 -9.37559 10271 ft 254 kts 269°
2026-05-07 18:42 38.86255 -9.39815 10014 ft 253 kts 269°
2026-05-07 18:43 38.86329 -9.42059 9747 ft 251 kts 269°
2026-05-07 18:43 38.86406 -9.44294 9444 ft 250 kts 269°
2026-05-07 18:43 38.86483 -9.46520 9152 ft 249 kts 269°
2026-05-07 18:43 38.86542 -9.48733 8864 ft 247 kts 269°
2026-05-07 18:44 38.86590 -9.50927 8576 ft 245 kts 269°
2026-05-07 18:44 38.86631 -9.53107 8298 ft 244 kts 269°
2026-05-07 18:44 38.86647 -9.55268 8040 ft 237 kts 262°
2026-05-07 18:44 38.86038 -9.57120 7955 ft 227 kts 223°
2026-05-07 18:45 38.84632 -9.58081 7960 ft 236 kts 192°
2026-05-07 18:45 38.82990 -9.58275 7953 ft 239 kts 180°
2026-05-07 18:45 38.81327 -9.58141 7940 ft 239 kts 176°
2026-05-07 18:45 38.79671 -9.57933 7934 ft 238 kts 176°
2026-05-07 18:46 38.78030 -9.57717 7938 ft 237 kts 176°
2026-05-07 18:46 38.76394 -9.57504 7938 ft 236 kts 176°
2026-05-07 18:46 38.74760 -9.57294 7940 ft 236 kts 176°
2026-05-07 18:46 38.73128 -9.57088 7945 ft 236 kts 176°
2026-05-07 18:47 38.71494 -9.56884 7941 ft 236 kts 176°
2026-05-07 18:47 38.69860 -9.56683 7943 ft 236 kts 176°
2026-05-07 18:47 38.68225 -9.56482 7941 ft 236 kts 176°
2026-05-07 18:47 38.66586 -9.56282 7942 ft 237 kts 176°
2026-05-07 18:48 38.64945 -9.56082 7948 ft 237 kts 176°
2026-05-07 18:48 38.63297 -9.55885 7940 ft 238 kts 176°
2026-05-07 18:48 38.61651 -9.55687 7944 ft 238 kts 176°
2026-05-07 18:48 38.60001 -9.55491 7943 ft 238 kts 176°
2026-05-07 18:49 38.58359 -9.55200 7943 ft 238 kts 171°
2026-05-07 18:49 38.56736 -9.54778 7943 ft 238 kts 171°
2026-05-07 18:49 38.55111 -9.54349 7938 ft 239 kts 171°
2026-05-07 18:49 38.53482 -9.53927 7948 ft 238 kts 171°
2026-05-07 18:50 38.51854 -9.53511 7945 ft 238 kts 171°
2026-05-07 18:50 38.50235 -9.53085 7926 ft 235 kts 167°
2026-05-07 18:50 38.48759 -9.52201 7951 ft 239 kts 151°
2026-05-07 18:50 38.47361 -9.51000 7947 ft 244 kts 148°
2026-05-07 18:51 38.45961 -9.49769 7942 ft 243 kts 149°
2026-05-07 18:51 38.44566 -9.48561 7934 ft 242 kts 149°
2026-05-07 18:51 38.43175 -9.47372 7932 ft 240 kts 149°
2026-05-07 18:51 38.41811 -9.46162 7919 ft 237 kts 141°
2026-05-07 18:52 38.40752 -9.44524 7948 ft 245 kts 127°
2026-05-07 18:52 38.39816 -9.42686 7937 ft 247 kts 127°
2026-05-07 18:52 38.38887 -9.40856 7937 ft 246 kts 127°
2026-05-07 18:52 38.37944 -9.39033 7944 ft 246 kts 127°
2026-05-07 18:53 38.36996 -9.37223 7943 ft 245 kts 128°
2026-05-07 18:53 38.36160 -9.35353 7915 ft 242 kts 110°
2026-05-07 18:53 38.36079 -9.33189 7943 ft 255 kts 80°
2026-05-07 18:53 38.36849 -9.31144 7943 ft 262 kts 51°
2026-05-07 18:54 38.38296 -9.29759 7927 ft 262 kts 22°
2026-05-07 18:54 38.40036 -9.29140 7938 ft 260 kts 13°
2026-05-07 18:54 38.41819 -9.28635 7784 ft 264 kts 12°
2026-05-07 18:54 38.43585 -9.28146 7636 ft 257 kts 12°
2026-05-07 18:55 38.45286 -9.27673 7524 ft 248 kts 12°
2026-05-07 18:55 38.46934 -9.27211 7406 ft 236 kts 12°
2026-05-07 18:55 38.48503 -9.26767 7253 ft 227 kts 12°
2026-05-07 18:55 38.50052 -9.26326 6913 ft 230 kts 11°
2026-05-07 18:56 38.51625 -9.25877 6523 ft 232 kts 11°
2026-05-07 18:56 38.53174 -9.25432 6044 ft 224 kts 12°
2026-05-07 18:56 38.54674 -9.24997 5568 ft 217 kts 11°
2026-05-07 18:56 38.56109 -9.24579 5206 ft 206 kts 10°
2026-05-07 18:57 38.57489 -9.24177 4750 ft 201 kts 11°
2026-05-07 18:57 38.58841 -9.23786 4280 ft 197 kts
2026-05-07 18:57 38.60102 -9.23279 4054 ft 187 kts 19°
2026-05-07 18:57 38.61311 -9.22609 4036 ft 189 kts 20°
2026-05-07 18:58 38.62505 -9.21939 3946 ft 187 kts 20°
2026-05-07 18:58 38.63668 -9.21251 3544 ft 181 kts 23°
2026-05-07 18:58 38.64769 -9.20577 3168 ft 167 kts 18°
2026-05-07 18:58 38.65814 -9.20042 2828 ft 159 kts 16°
2026-05-07 18:59 38.66833 -9.19604 2662 ft 155 kts 14°
2026-05-07 18:59 38.67840 -9.19100 2421 ft 155 kts 19°
2026-05-07 18:59 38.68822 -9.18563 2144 ft 158 kts 17°
2026-05-07 18:59 38.69825 -9.18016 1881 ft 148 kts 20°
2026-05-07 19:00 38.70771 -9.17477 1692 ft 152 kts 18°
2026-05-07 19:00 38.71763 -9.16995 1446 ft 151 kts 18°
2026-05-07 19:00 38.72692 -9.16462 1202 ft 139 kts 19°
2026-05-07 19:00 38.73558 -9.15981 1080 ft 131 kts 16°
2026-05-07 19:01 38.74430 -9.15514 885 ft 142 kts 18°
2026-05-07 19:01 38.75332 -9.15066 636 ft 132 kts 16°
2026-05-07 19:01 38.76213 -9.14634 524 ft 141 kts 19°
2026-05-07 19:01 38.77083 -9.14135 365 ft 130 kts 17°
2026-05-07 19:02 38.77787 -9.13783 370 ft 77 kts 24°
2026-05-07 19:02 38.78175 -9.13569 374 ft 49 kts 28°
2026-05-07 19:02 38.78354 -9.13373 374 ft 23 kts 47°
2026-05-07 19:02 38.78342 -9.13277 370 ft 12 kts 167°
2026-05-07 19:03 38.78260 -9.13298 369 ft 12 kts 202°
2026-05-07 19:03 38.78185 -9.13343 367 ft 12 kts 201°
2026-05-07 19:03 38.78109 -9.13377 368 ft 10 kts 199°
2026-05-07 19:03 38.78063 -9.13400 366 ft 0 kts 201°
2026-05-07 19:04 38.78040 -9.13412 369 ft 14 kts 202°
2026-05-07 19:04 38.77881 -9.13498 367 ft 31 kts 203°
2026-05-07 19:04 38.77685 -9.13604 366 ft 30 kts 202°
2026-05-07 19:04 38.77492 -9.13703 366 ft 30 kts 204°
2026-05-07 19:05 38.77302 -9.13808 362 ft 23 kts 202°
2026-05-07 19:05 38.77198 -9.13842 358 ft 6 kts 165°
2026-05-07 19:05 38.77161 -9.13813 365 ft 7 kts 137°
2026-05-07 19:05 38.77120 -9.13790 363 ft 7 kts 178°
2026-05-07 19:06 38.77100 -9.13797 360 ft 0 kts 198°